Date String (YYYY-MM-DD hh:mm:ss) UTC,Instrument flags,Ambient pressure (hPa),Sample flow (lpm),Bypass flow (lpm),Sample temperature (°C),Ambient temperature (°C),ASC tube jacket temperature (°C),LED temperature (°C),Box temperature (°C),Sample RH (%),Span deviation,Mass concentration (μg/m³),Mass concentration (μg/m³),Mass concentration (μg/m³)
DateTimeUTC,F1_M11,P_M11,Q1_M11,Q2_M11,T1_M11,T2_M11,T3_M11,T4_M11,T5_M11,U1_M11,ZSPAN_M11,X0_M11,X2_M11,X1_M11
2022-01-28 08:00:00,,0834.0,5.00,0.00,21.8,21.1,00.0,31.0,23.3,06.5,0000.0,0004.23,0002.60,0002.31
2022-01-28 08:01:00,,0834.0,5.01,0.00,21.8,20.9,00.0,31.0,23.2,06.6,0000.0,0003.76,0002.62,0002.31
2022-01-28 08:02:00,,0834.0,4.98,0.00,21.8,21.3,00.0,31.0,23.3,06.6,0000.0,0003.76,0002.62,0002.32
2022-01-28 08:03:00,,0834.0,5.00,0.00,21.9,22.1,00.0,31.0,23.6,06.6,0000.0,0003.57,0002.60,0002.33
2022-01-28 08:04:00,,0834.1,5.02,0.00,22.0,22.9,00.0,31.0,23.9,06.6,0000.0,0003.71,0002.62,0002.35
2022-01-28 08:05:00,,0834.1,4.99,0.00,22.2,23.0,00.0,31.0,24.0,06.5,0000.0,0003.79,0002.64,0002.36
2022-01-28 08:06:00,,0834.1,5.01,0.00,22.2,22.6,00.0,31.1,24.0,06.5,0000.0,0003.74,0002.63,0002.36
2022-01-28 08:07:00,,0834.0,5.00,0.00,22.1,22.2,00.0,31.1,23.8,06.5,0000.0,0003.83,0002.67,0002.38
2022-01-28 08:08:00,,0834.0,4.99,0.00,22.1,21.9,00.0,31.0,23.7,06.7,0000.0,0003.94,0002.71,0002.40
2022-01-28 08:09:00,,0834.0,5.01,0.00,22.0,21.7,00.0,31.0,23.6,06.9,0000.0,0003.96,0002.74,0002.43
2022-01-28 08:10:00,,0834.0,5.01,0.00,22.0,21.5,00.0,31.0,23.5,07.0,0000.0,0004.02,0002.80,0002.49
2022-01-28 08:11:00,,0834.1,4.98,0.00,21.9,21.3,00.0,31.0,23.4,07.0,0000.0,0004.22,0002.88,0002.55
2022-01-28 08:12:00,,0834.0,5.00,0.00,21.8,21.1,00.0,31.0,23.4,07.2,0000.0,0004.21,0002.92,0002.61
2022-01-28 08:13:00,,0834.1,5.00,0.00,21.8,21.1,00.0,30.9,23.3,07.1,0000.0,0004.20,0002.97,0002.67
2022-01-28 08:14:00,,0834.0,4.99,0.00,21.9,21.8,00.0,31.0,23.5,06.7,0000.0,0004.56,0002.96,0002.67
2022-01-28 08:15:00,,0834.1,5.01,0.00,22.0,22.5,00.0,31.0,23.8,06.4,0000.0,0004.70,0002.91,0002.65
2022-01-28 08:16:00,,0834.0,5.01,0.00,22.1,22.9,00.0,31.0,24.0,06.3,0000.0,0004.59,0002.88,0002.63
2022-01-28 08:17:00,,0834.1,4.99,0.00,22.2,22.7,00.0,31.0,24.1,06.2,0000.0,0004.53,0002.85,0002.62
2022-01-28 08:18:00,,0834.0,5.01,0.00,22.2,22.4,00.0,31.0,24.0,06.1,0000.0,0004.45,0002.82,0002.60
2022-01-28 08:19:00,,0834.0,5.00,0.00,22.2,22.2,00.0,31.0,23.9,06.1,0000.0,0004.30,0002.75,0002.58
2022-01-28 08:20:00,,0834.0,4.99,0.00,22.1,21.9,00.0,31.0,23.8,06.1,0000.0,0004.33,0002.75,0002.55
2022-01-28 08:21:00,,0834.0,5.01,0.00,22.1,21.8,00.0,31.0,23.8,06.1,0000.0,0004.27,0002.70,0002.50
2022-01-28 08:22:00,,0834.0,5.00,0.00,22.1,21.6,00.0,31.0,23.7,06.1,0000.0,0004.09,0002.63,0002.45
2022-01-28 08:23:00,,0834.0,5.01,0.00,22.0,21.5,00.0,31.0,23.7,06.0,0000.0,0004.37,0002.52,0002.36
2022-01-28 08:24:00,,0834.0,5.00,0.00,22.0,21.3,00.0,31.0,23.6,06.1,0000.0,0004.82,0002.45,0002.29
2022-01-28 08:25:00,,0834.0,5.00,0.00,21.9,21.4,00.0,31.0,23.6,06.1,0000.0,0004.36,0002.45,0002.29
2022-01-28 08:26:00,,0834.0,5.00,0.00,22.0,22.1,00.0,31.0,23.8,06.0,0000.0,0004.37,0002.50,0002.29
2022-01-28 08:27:00,,0834.1,5.01,0.00,22.2,22.7,00.0,31.1,24.0,06.0,0000.0,0004.76,0002.56,0002.27
2022-01-28 08:28:00,,0834.0,4.99,0.00,22.3,23.2,00.0,31.1,24.2,05.9,0000.0,0004.81,0002.56,0002.25
2022-01-28 08:29:00,,0834.0,5.01,0.00,22.4,23.0,00.0,31.1,24.3,05.8,0000.0,0004.78,0002.53,0002.23
2022-01-28 08:30:00,,0834.0,5.00,0.00,22.3,22.7,00.0,31.2,24.2,05.8,0000.0,0005.83,0002.52,0002.22
2022-01-28 08:31:00,,0834.0,4.99,0.00,22.3,22.3,00.0,31.2,24.1,05.8,0000.0,0006.28,0002.46,0002.19
2022-01-28 08:32:00,,0834.0,4.99,0.00,22.3,22.0,00.0,31.2,23.9,05.7,0000.0,0006.21,0002.41,0002.16
2022-01-28 08:33:00,,0834.0,5.00,0.00,22.2,21.8,00.0,31.1,23.9,05.7,0000.0,0006.21,0002.40,0002.14
2022-01-28 08:34:00,,0834.0,5.00,0.00,22.2,21.7,00.0,31.1,23.8,05.7,0000.0,0005.94,0002.40,0002.12
2022-01-28 08:35:00,,0834.0,5.00,0.00,22.1,21.5,00.0,31.1,23.7,05.7,0000.0,0005.22,0002.40,0002.12
2022-01-28 08:36:00,,0834.0,5.00,0.00,22.1,21.4,00.0,31.1,23.6,05.8,0000.0,0005.31,0002.39,0002.09
2022-01-28 08:37:00,,0834.0,5.01,0.00,22.0,21.3,00.0,31.1,23.6,05.8,0000.0,0005.15,0002.37,0002.08
2022-01-28 08:38:00,,0834.0,5.00,0.00,22.0,21.2,00.0,31.1,23.5,05.9,0000.0,0004.76,0002.31,0002.08
2022-01-28 08:39:00,,0834.0,5.00,0.00,21.9,21.4,00.0,31.1,23.5,05.9,0000.0,0004.79,0002.32,0002.08
2022-01-28 08:40:00,,0834.0,4.99,0.00,22.0,22.1,00.0,31.1,23.8,05.7,0000.0,0004.81,0002.32,0002.06
2022-01-28 08:41:00,,0834.0,5.01,0.00,22.2,22.8,00.0,31.1,24.0,05.6,0000.0,0004.01,0002.30,0002.03
2022-01-28 08:42:00,,0834.0,4.99,0.00,22.3,23.2,00.0,31.2,24.2,05.6,0000.0,0003.16,0002.28,0002.01
2022-01-28 08:43:00,,0834.0,5.01,0.00,22.3,22.9,00.0,31.2,24.2,05.4,0000.0,0003.14,0002.26,0001.99
2022-01-28 08:44:00,,0834.0,5.00,0.00,22.3,22.5,00.0,31.2,24.1,05.2,0000.0,0003.02,0002.19,0001.93
2022-01-28 08:45:00,,0834.0,4.99,0.00,22.2,22.2,00.0,31.2,23.9,05.0,0000.0,0002.88,0002.10,0001.86
2022-01-28 08:46:00,,0834.0,5.01,0.00,22.2,21.9,00.0,31.2,23.8,04.8,0000.0,0002.81,0002.02,0001.77
2022-01-28 08:47:00,,0834.0,5.00,0.00,22.1,21.7,00.0,31.1,23.7,04.8,0000.0,0002.66,0001.94,0001.69
2022-01-28 08:48:00,,0834.1,4.99,0.00,22.0,21.5,00.0,31.1,23.6,05.1,0000.0,0002.51,0001.85,0001.61
2022-01-28 08:49:00,,0834.1,4.99,0.00,22.0,21.4,00.0,31.1,23.6,06.1,0000.0,0002.53,0001.84,0001.59
2022-01-28 08:50:00,,0834.1,5.01,0.00,22.0,21.3,00.0,31.1,23.6,06.3,0000.0,0002.47,0001.83,0001.59
2022-01-28 08:51:00,,0834.1,5.01,0.00,22.0,21.2,00.0,31.1,23.5,06.4,0000.0,0002.56,0001.83,0001.61
2022-01-28 08:52:00,,0834.1,4.99,0.00,22.0,21.6,00.0,31.1,23.6,06.4,0000.0,0002.72,0001.86,0001.64
2022-01-28 08:53:00,,0834.1,5.01,0.00,22.1,22.4,00.0,31.1,23.9,06.4,0000.0,0002.73,0001.87,0001.64
2022-01-28 08:54:00,,0834.1,5.00,0.00,22.2,23.1,00.0,31.1,24.1,06.4,0000.0,0002.81,0001.90,0001.66
2022-01-28 08:55:00,,0834.1,5.00,0.00,22.3,22.9,00.0,31.1,24.2,06.4,0000.0,0002.93,0001.99,0001.73
2022-01-28 08:56:00,,0834.1,5.00,0.00,22.3,22.6,00.0,31.2,24.2,06.4,0000.0,0003.11,0002.10,0001.82
2022-01-28 08:57:00,,0834.1,4.99,0.00,22.3,22.3,00.0,31.2,24.1,06.6,0000.0,0003.33,0002.23,0001.94
2022-01-28 08:58:00,,0834.2,4.99,0.00,22.3,22.1,00.0,31.2,24.0,06.8,0000.0,0003.45,0002.32,0002.04
2022-01-28 08:59:00,,0834.2,5.01,0.00,22.2,21.9,00.0,31.1,23.9,06.7,0000.0,0003.57,0002.43,0002.14
